Regional Weather Roundup
Issued by NWS San Angelo, TX

Home | Current Version | Previous Version | Text Only | Print | Product List | Glossary On
Versions: 1 2 3 4 5 6 7 8 9 10 11 12 13 14 15 16 17 18 19 20 21 22 23 24 25 26 27 28 29 30 31 32 33 34 35 36 37 38 39 40 41 42 43 44 45 46 47 48 49 50
000
ASUS44 KSJT 231410
RWRSJT
WEST CENTRAL TEXAS REGIONAL WEATHER ROUNDUP
NATIONAL WEATHER SERVICE SAN ANGELO TX
900 AM CDT MON APR 23 2018

NOTE: "FAIR" INDICATES FEW OR NO CLOUDS BELOW 12,000 FEET WITH NO
SIGNIFICANT WEATHER AND/OR OBSTRUCTIONS TO VISIBILITY.

TXZ049-054-064>066-071>073-076>078-098-099-113-114-127-128-139-140-
154-155-168>170-231500
...LOCATIONS ACROSS WEST CENTRAL TEXAS...

CITY           SKY/WX    TMP DP  RH WIND       PRES   REMARKS
SAN ANGELO     SUNNY     56  40  55 CALM      30.17S
ABILENE        SUNNY     52  42  69 N3        30.19R
DYESS AFB      SUNNY     54  39  56 N3        30.18R
JUNCTION       MOSUNNY   54  41  61 CALM      30.17S
SWEETWATER     SUNNY     54  41  60 N7        30.21S
BROWNWOOD      SUNNY     55  41  58 CALM      30.18R
COLEMAN        SUNNY     57  43  60 N9        30.18S
SONORA         SUNNY     57  41  54 CALM      30.21S
OZONA          FAIR      59  39  47 E7        30.19S
BRADY          SUNNY     59  41  51 CALM      30.17S
$$

TEXAS PANHANDLE/OKLAHOMA PANHANDLE

CITY           SKY/WX    TMP DP  RH WIND       PRES   REMARKS
AMARILLO       SUNNY     50  41  71 CALM      30.21R
BORGER         SUNNY     46  41  82 W3        30.21R
CANADIAN       SUNNY     47  45  91 CALM      30.20R
DALHART        SUNNY     46  41  82 S3        30.20S HAZE
DUMAS          SUNNY     46  40  78 CALM      30.20S
GUYMON         NOT AVBL
HEREFORD       SUNNY     45  41  86 CALM      30.22S
PAMPA          SUNNY     48  43  82 W3        30.21S
PERRYTON       SUNNY     47  43  85 W5        30.18S
$$

SOUTHERN PANHANDLE/SOUTH PLAINS/ROLLING PLAINS

CITY           SKY/WX    TMP DP  RH WIND       PRES   REMARKS
LUBBOCK        MOSUNNY   52  39  61 E7        30.20R
SNYDER         SUNNY     52  38  59 NE7       30.19S
CHILDRESS      SUNNY     53  45  74 N9        30.19S
SEMINOLE       SUNNY     53  37  53 E7        30.21R
$$

PERMIAN BASIN

CITY           SKY/WX    TMP DP  RH WIND       PRES   REMARKS
MIDLAND        SUNNY     59  36  42 E12       30.17R
ODESSA         SUNNY     59  37  44 E10       30.18R
WINK           SUNNY     60  36  40 E10       30.15R
$$

FAR WEST/SOUTHWEST MOUNTAINS/TRANS PECOS

CITY           SKY/WX    TMP DP  RH WIND       PRES   REMARKS
ALPINE         SUNNY     62  33  32 CALM      30.23S
DRYDEN           N/A     63  44  50 E8        30.12R
EL PASO        MOSUNNY   61  32  33 N5        30.12R
FORT STOCKTON  SUNNY     59  38  45 SE13      30.14R
GUADALUPE PASS SUNNY     56  34  43 E18       30.20R
MARFA          SUNNY     58  34  40 CALM      30.21R
PECOS          SUNNY     57  36  46 E9        30.15S
$$

DALLAS/FORT WORTH METROPLEX

CITY           SKY/WX    TMP DP  RH WIND       PRES   REMARKS
DFW AIRPORT    CLOUDY    58  50  75 NW16      30.08S
FTW MEACHAM    PTSUNNY   58  51  78 NW10      30.11R
DAL-EXECUTIVE  CLOUDY    56  49  77 NW9       30.10R
GRAND PRAIRIE  PTSUNNY   55  46  71 W3        30.12R
ADDISON        CLOUDY    54  48  82 NW9       30.09S
MESQUITE       MOSUNNY   57  48  72 W10       30.09R
LANCASTER      CLOUDY    55  49  82 NW10      30.11R
$$

NORTH CENTRAL TEXAS

CITY           SKY/WX    TMP DP  RH WIND       PRES   REMARKS
SHRMAN/DENISON CLOUDY    55  50  83 N12G17    30.10R
GAINESVILLE    SUNNY     56  49  76 NW13G18   30.12R
BRIDGEPORT     MOSUNNY   56  49  75 NW8       30.14S
DENTON         MOSUNNY   55  51  86 NW12      30.11R
WAXAHACHIE     MOSUNNY   55  51  85 NW10      30.12R
GRANBURY       SUNNY     56  49  77 NW9       30.16R
$$

WESTERN NORTH TEXAS

CITY           SKY/WX    TMP DP  RH WIND       PRES   REMARKS
WICHITA FALLS  SUNNY     55  47  74 NW12      30.15R
VERNON         MOSUNNY   56  46  69 N13       30.17S
BRECKENRIDGE   MOSUNNY   53  49  86 CALM      30.17S
COMANCHE       SUNNY     56  47  71 N7        30.17R
$$

CENTRAL AND SOUTH CENTRAL TEXAS

CITY           SKY/WX    TMP DP  RH WIND       PRES   REMARKS
AUSTIN/BERGSTM CLOUDY    63  49  60 W3        30.12R
WACO           SUNNY     58  48  69 NW10      30.14R
HILLSBORO      MOSUNNY   55  51  87 NW16      30.12R
TEMPLE         SUNNY     58  48  69 NW10      30.14R
KILLEEN-GRAY   NOT AVBL
FORT HOOD      NOT AVBL
GEORGETOWN     SUNNY     62  47  57 NW8       30.15R
LAGO VISTA     FAIR      59  46  63 W7        30.15R
SAN MARCOS     CLOUDY    57  48  72 W5        30.14R
NEW BRAUNFELS  CLOUDY    60  51  72 NW3       30.13R
RANDOLPH AFB   PTSUNNY   61  50  68 N3        30.14R
SAN ANTONIO    CLOUDY    62  48  60 NW5       30.14R
STINSON        CLOUDY    64  52  64 CALM      30.12S
PLEASANTON     NOT AVBL
LA GRANGE      CLOUDY    60  52  73 N6        30.10S
GIDDINGS       PTSUNNY   60  49  67 NW3       30.13R
$$

EAST TEXAS

CITY           SKY/WX    TMP DP  RH WIND       PRES   REMARKS
PARIS          CLOUDY    56  51  84 NW14      30.04S
CLARKSVILLE    NOT AVBL
TYLER          MOSUNNY   58  51  78 NW12G18   30.05R
LONGVIEW       SUNNY     58  53  84 NW12      30.02S
PALESTINE      SUNNY     56  51  86 W10       30.10R
NACOGDOCHES      N/A     56  52  86 NW13      30.06R
$$

TEXAS HILL COUNTRY AND EDWARDS PLATEAU

CITY           SKY/WX    TMP DP  RH WIND       PRES   REMARKS
LLANO          SUNNY     57  45  62 CALM      30.19S
HORSESHOE BAY  FAIR      59  47  62 CALM      30.15S
KERRVILLE      MOSUNNY   56  47  70 CALM      30.15F
FREDERICKSBRG  MOSUNNY   55  45  68 CALM      30.15F
ROCKSPRINGS    SUNNY     63  45  51 SE5       30.21R
HONDO          MOSUNNY   65  50  58 NE7       30.14R
UVALDE         MOSUNNY   62  51  66 E6        30.15R
DEL RIO        SUNNY     66  52  60 E9        30.11R
$$

SOUTHEAST TEXAS

CITY           SKY/WX    TMP DP  RH WIND       PRES   REMARKS
COLLEGE STN    SUNNY     59  50  72 NW8       30.11R
CALDWELL       SUNNY     62  50  66 NW7       30.12R
CROCKETT       SUNNY     55  50  82 NW7       30.11R
BRENHAM        PTSUNNY   61  52  71 W8        30.12S
HUNTSVILLE     SUNNY     60  50  69 NW8       30.09R
CONROE         SUNNY     61  53  75 NW6       30.09R
HOUSTON BUSH   FAIR      62  51  67 W7        30.09R
HOUSTON HOBBY  FAIR      64  52  64 NW7       30.08S
PERLAND        FAIR      62  53  72 NW5       30.10R
WHARTON        SUNNY     60  53  79 W5        30.13R
$$

THE UPPER TEXAS COAST

CITY           SKY/WX    TMP DP  RH WIND       PRES   REMARKS
ORANGE         FAIR      62  56  82 W5        30.07S
PORT ARTHUR    FAIR      60  52  74 W8        30.05S
GALVESTON      FAIR      66  54  65 NW7       30.09R
ANGLETON       FAIR      63  55  75 W3        30.10R
BAY CITY       FAIR      62  54  77 NW5       30.11R
$$

TEXAS COASTAL BEND, RIO GRANDE PLAINS DEEP SOUTH TEXAS

CITY           SKY/WX    TMP DP  RH WIND       PRES   REMARKS
VICTORIA       MOSUNNY   64  55  72 NW3       30.12S
BEEVILLE       FAIR      65  51  60 E6        30.12R
ROCKPORT       MOSUNNY   68  56  65 NE8       30.11R
PORT ARANSAS   NOT AVBL
PORT LAVACA    SUNNY     63  54  72 CALM      30.12R
CORPUS CHRISTI PTSUNNY   70  55  59 E12       30.10S
KINGSVILLE NAS CLOUDY    71  58  63 NE9       30.10
COTULLA        SUNNY     66  53  63 E9        30.12R
LAREDO         CLOUDY    68  59  73 E5        30.10F
BROWNSVILLE    CLOUDY    74  65  73 E12       30.09R
PORT ISABEL    CLOUDY    74  61  63 NE14      30.08R
HEBBRONVILLE   CLOUDY    67  57  70 SE10      30.13R
MCALLEN        CLOUDY    69  65  86 NE8       30.08S
WESLACO        CLOUDY    69  62  78 E8        30.07F
FALFURRIAS     CLOUDY    70  58  65 NE7       30.10R
EDINBURG       CLOUDY    72  62  68 NE9       30.09S
$$



USA.gov is the U.S. government's official web portal to all federal, state and local government web resources and services.